Погода в Лаклах

Россия / Республика Башкортостан     55°11′40″N   58°32′45″E
темп.,
°C
ветер,
м/с
пор.,
м/с
влажн.,
%
обл.,
%
осадки,
мм/ч
давл.,
гПа
погр.,
м
8 марта, пн
пн823:00−18юз339892 0.2 101140
02:00−18ююз339764 0.0 101132
05:00−19ююз339358 0.0 101130
08:00−14ю3987100 0.0 1007260
11:00−9ююз61283100 0.0 10051067
14:00−6юз91582100 0.4 10031280
17:00−4юз9158699 0.4 10011222
20:00−5з8158697 1.2 10031273
9 марта, вт
вт923:00−7зюз6148698 1.8 1005631
02:00−10ююз349137 0.0 100530
05:00−7юв389668 1.4 1002314
08:00−4юз91694100 1.4 10011309
11:00−7зюз11158496 1.7 10041094
14:00−5з7107896 0.1 10081268
17:00−6зюз578289 0.1 1010850
20:00−12юз229044 0.0 101121
10 марта, ср
ср1023:00−13вюв118972 0.0 101120
02:00−12всв2288100 0.0 100821
05:00−10св2396100 0.3 1005126
08:00−9в2295100 0.6 1001100
11:00−6юв1383100 0.8 998376
14:00−2ю2483100 0.4 997630
17:00−11юз9148387 1.1 998585
20:00−10зсз91394100 1.7 1001861
11 марта, чт
чт1123:00−14зсз81294100 5.5 1003840
02:00−16зсз6996100 1.9 1004608
05:00−19зсз61097100 2.4 1007439
08:00−21зсз5998100 0.4 1009403
11:00−19зсз6895100 0.9 1011524
14:00−16зсз678685 0.1 1012670
17:00−16з7109192 0.3 1014836
20:00−19зюз61096100 0.3 1016507
12 марта, пт
пт1223:00−19зюз61096100 0.8 1016450
02:00−19зюз71394100 0.5 1017508
05:00−18зюз61293100 0.8 1018461
08:00−17з4897100 0.4 1021329
11:00−15зюз4594100 0.9 1022377
14:00−11з6887100 0.1 1022808
17:00−9з6986100 0.3 10231019
20:00−15з499499 0.1 1025227